Location: Alafon
(8.4500°N, 4.2333°E)
Time: 17:32:35
(UTC+00:00)

SR - Pass Details

Date: 02 August 2021
Orbit: 581 x 874 km, 66.7° (Epoch: 18 September)

Event Time Altitude Azimuth Distance (km) Brightness Sun altitude
Rises 04:25:54 0° 206° (SSW) 3,425 - -16.9°
Reaches altitude 10° 04:28:23 10° 209° (SSW) 2,505 - -16.3°
Exits shadow 04:29:36 17° 212° (SSW) 2,064 ? -16.1°
Maximum altitude 04:34:10 64° 290° (WNW) 957 ? -15.0°
Drops below altitude 10° 04:39:56 10° 12° (NNE) 2,489 ? -13.7°
Sets 04:42:24 0° 15° (NNE) 3,402 ? -13.1°
